Location: Newark
(43.9494°N, 6.8108°E)
Time: 15:01:03
(UTC+00:00)

A-11 Canister half - Pass Details

Date: 01 November 2019
Orbit: 1514 x 1686 km, 47.2° (Epoch: 13 November)

Event Time Altitude Azimuth Distance (km) Brightness Sun altitude
Rises 01:17:11 0° 274° (W) 4,922 - -50.7°
Reaches altitude 10° 01:20:24 10° 276° (W) 3,921 - -50.3°
Maximum altitude 01:30:28 74° 1° (N) 1,688 - -48.8°
Exits shadow 01:34:31 41° 77° (ENE) 2,199 9.9 -48.2°
Drops below altitude 10° 01:40:11 10° 87° (E) 3,791 11.5 -47.4°
Sets 01:43:15 0° 90° (E) 4,752 12.1 -46.9°
